Time,TemperatureF,DewpointF,PressureIn,WindDirection,WindDirectionDegrees,WindSpeedMPH,WindSpeedGustMPH,Humidity,HourlyPrecipIn,Conditions,Clouds,dailyrainin,SolarRadiationWatts/m^2,SoftwareType,DateUTC
2013-03-25 00:00:00,29.8,21.9,30.21,North,10,4.0,10.0,72,0.00,,,0.00,0.0,meteohub,2013-03-25 05:00:00,
2013-03-25 00:07:00,29.7,21.7,30.21,NNE,24,3.0,10.0,72,0.00,,,0.00,0.0,meteohub,2013-03-25 05:07:00,
2013-03-25 00:13:00,29.3,21.4,30.21,North,0,4.0,12.0,72,0.00,,,0.00,0.0,meteohub,2013-03-25 05:13:00,
2013-03-25 00:19:00,29.1,21.6,30.21,North,5,2.0,12.0,73,0.00,,,0.00,0.0,meteohub,2013-03-25 05:19:00,
2013-03-25 00:25:00,28.9,21.4,30.21,North,355,3.0,12.0,73,0.00,,,0.00,0.0,meteohub,2013-03-25 05:25:00,
2013-03-25 00:31:00,28.8,21.2,30.21,NNE,24,3.0,12.0,73,0.00,,,0.00,0.0,meteohub,2013-03-25 05:31:00,
2013-03-25 00:38:00,28.6,21.4,30.22,North,11,1.0,7.0,74,0.00,,,0.00,0.0,meteohub,2013-03-25 05:38:00,
2013-03-25 00:44:00,28.4,21.2,30.22,NNE,30,1.0,7.0,74,0.00,,,0.00,0.0,meteohub,2013-03-25 05:44:00,
2013-03-25 00:50:00,28.2,21.4,30.22,North,355,2.0,7.0,75,0.00,,,0.00,0.0,meteohub,2013-03-25 05:50:00,
2013-03-25 00:57:00,28.0,21.2,30.22,NNE,26,4.0,7.0,75,0.00,,,0.00,0.0,meteohub,2013-03-25 05:57:00,
2013-03-25 01:03:00,27.9,21.0,30.22,North,0,2.0,7.0,75,0.00,,,0.00,0.0,meteohub,2013-03-25 06:03:00,
2013-03-25 01:10:00,27.9,21.2,30.22,NNE,19,1.0,7.0,76,0.00,,,0.00,0.0,meteohub,2013-03-25 06:10:00,
2013-03-25 01:16:00,27.7,21.0,30.22,NNW,348,1.0,7.0,76,0.00,,,0.00,0.0,meteohub,2013-03-25 06:16:00,
2013-03-25 01:22:00,27.7,21.4,30.22,NE,49,5.0,7.0,77,0.00,,,0.00,0.0,meteohub,2013-03-25 06:22:00,
2013-03-25 01:28:00,27.3,21.0,30.22,NE,35,2.0,7.0,77,0.00,,,0.00,0.0,meteohub,2013-03-25 06:28:00,
2013-03-25 01:34:00,27.3,21.0,30.22,NNE,12,3.0,7.0,77,0.00,,,0.00,0.0,meteohub,2013-03-25 06:34:00,
2013-03-25 01:41:00,27.1,21.2,30.22,NNW,346,2.0,7.0,78,0.00,,,0.00,0.0,meteohub,2013-03-25 06:41:00,
2013-03-25 01:47:00,27.0,21.0,30.22,North,5,2.0,7.0,78,0.00,,,0.00,0.0,meteohub,2013-03-25 06:47:00,
2013-03-25 01:53:00,26.8,21.2,30.22,North,5,2.0,7.0,79,0.00,,,0.00,0.0,meteohub,2013-03-25 06:53:00,
2013-03-25 01:59:00,26.8,20.8,30.22,NNE,32,3.0,7.0,78,0.00,,,0.00,0.0,meteohub,2013-03-25 06:59:00,
2013-03-25 02:06:00,26.4,20.8,30.23,NNW,345,1.0,6.0,79,0.00,,,0.00,0.0,meteohub,2013-03-25 07:06:00,
2013-03-25 02:12:00,26.2,20.7,30.23,North,9,4.0,6.0,79,0.00,,,0.00,0.0,meteohub,2013-03-25 07:12:00,
2013-03-25 02:18:00,26.2,20.3,30.23,NNE,15,3.0,8.0,78,0.00,,,0.00,0.0,meteohub,2013-03-25 07:18:00,
2013-03-25 02:24:00,26.2,20.3,30.23,NNW,337,4.0,8.0,78,0.00,,,0.00,0.0,meteohub,2013-03-25 07:24:00,
2013-03-25 02:31:00,26.1,20.1,30.23,North,0,1.0,8.0,78,0.00,,,0.00,0.0,meteohub,2013-03-25 07:31:00,
2013-03-25 02:37:00,25.9,19.9,30.23,North,0,3.0,8.0,78,0.00,,,0.00,0.0,meteohub,2013-03-25 07:37:00,
2013-03-25 02:43:00,25.9,19.9,30.23,NNW,347,4.0,8.0,78,0.00,,,0.00,0.0,meteohub,2013-03-25 07:43:00,
2013-03-25 02:49:00,25.9,19.9,30.23,North,0,3.0,7.0,78,0.00,,,0.00,0.0,meteohub,2013-03-25 07:49:00,
2013-03-25 02:55:00,25.9,19.9,30.23,North,355,3.0,7.0,78,0.00,,,0.00,0.0,meteohub,2013-03-25 07:55:00,
2013-03-25 03:02:00,25.5,19.6,30.23,NNW,339,2.0,8.0,78,0.00,,,0.00,0.0,meteohub,2013-03-25 08:02:00,
2013-03-25 03:08:00,25.3,19.4,30.23,NW,314,1.0,8.0,78,0.00,,,0.00,0.0,meteohub,2013-03-25 08:08:00,
2013-03-25 03:14:00,25.2,19.2,30.23,NNW,347,4.0,8.0,78,0.00,,,0.00,0.0,meteohub,2013-03-25 08:14:00,
2013-03-25 03:20:00,25.3,19.4,30.23,North,0,5.0,8.0,78,0.00,,,0.00,0.0,meteohub,2013-03-25 08:20:00,
2013-03-25 03:27:00,25.2,19.2,30.23,NNE,14,3.0,8.0,78,0.00,,,0.00,0.0,meteohub,2013-03-25 08:27:00,
2013-03-25 03:32:00,25.0,19.0,30.23,North,0,4.0,7.0,78,0.00,,,0.00,0.0,meteohub,2013-03-25 08:32:00,
2013-03-25 03:37:00,25.0,19.0,30.23,North,355,3.0,7.0,78,0.00,,,0.00,0.0,meteohub,2013-03-25 08:37:00,
2013-03-25 03:43:00,25.0,19.0,30.23,NNW,346,5.0,7.0,78,0.00,,,0.00,0.0,meteohub,2013-03-25 08:43:00,
2013-03-25 03:49:00,24.6,19.0,30.23,North,11,3.0,7.0,79,0.00,,,0.00,0.0,meteohub,2013-03-25 08:49:00,
2013-03-25 03:56:00,24.6,19.0,30.23,North,350,0.0,7.0,79,0.00,,,0.00,0.0,meteohub,2013-03-25 08:56:00,
2013-03-25 04:02:00,24.4,18.9,30.23,North,0,2.0,8.0,79,0.00,,,0.00,0.0,meteohub,2013-03-25 09:02:00,
2013-03-25 04:08:00,24.6,19.0,30.23,North,355,2.0,8.0,79,0.00,,,0.00,0.0,meteohub,2013-03-25 09:08:00,
2013-03-25 04:15:00,24.6,18.7,30.23,NNW,336,3.0,8.0,78,0.00,,,0.00,0.0,meteohub,2013-03-25 09:15:00,
2013-03-25 04:21:00,24.4,18.5,30.23,North,355,5.0,9.0,78,0.00,,,0.00,0.0,meteohub,2013-03-25 09:21:00,
2013-03-25 04:27:00,24.4,18.5,30.23,North,11,3.0,9.0,78,0.00,,,0.00,0.0,meteohub,2013-03-25 09:27:00,
2013-03-25 04:33:00,24.4,18.5,30.23,North,355,5.0,10.0,78,0.00,,,0.00,0.0,meteohub,2013-03-25 09:33:00,
2013-03-25 04:40:00,24.3,18.3,30.23,North,9,3.0,10.0,78,0.00,,,0.00,0.0,meteohub,2013-03-25 09:40:00,
2013-03-25 04:46:00,24.3,18.3,30.23,NNW,345,3.0,10.0,78,0.00,,,0.00,0.0,meteohub,2013-03-25 09:46:00,
2013-03-25 04:52:00,24.1,18.1,30.23,NNW,348,2.0,10.0,78,0.00,,,0.00,0.0,meteohub,2013-03-25 09:52:00,
2013-03-25 04:59:00,24.1,18.1,30.23,North,355,8.0,10.0,78,0.00,,,0.00,0.0,meteohub,2013-03-25 09:59:00,
2013-03-25 05:05:00,23.9,17.8,30.23,NNE,13,4.0,10.0,77,0.00,,,0.00,0.0,meteohub,2013-03-25 10:05:00,
2013-03-25 05:11:00,23.7,17.6,30.23,NNE,15,3.0,10.0,77,0.00,,,0.00,0.0,meteohub,2013-03-25 10:11:00,
2013-03-25 05:17:00,23.7,17.6,30.24,North,355,3.0,9.0,77,0.00,,,0.00,0.0,meteohub,2013-03-25 10:17:00,
2013-03-25 05:24:00,23.7,17.6,30.24,North,10,5.0,9.0,77,0.00,,,0.00,0.0,meteohub,2013-03-25 10:24:00,
2013-03-25 05:30:00,23.5,17.4,30.24,North,355,2.0,9.0,77,0.00,,,0.00,0.0,meteohub,2013-03-25 10:30:00,
2013-03-25 05:36:00,23.5,17.4,30.24,NNW,344,4.0,9.0,77,0.00,,,0.00,0.0,meteohub,2013-03-25 10:36:00,
2013-03-25 05:42:00,23.5,17.4,30.24,NNW,335,2.0,9.0,77,0.00,,,0.00,0.0,meteohub,2013-03-25 10:42:00,
2013-03-25 05:48:00,23.4,17.2,30.25,NNE,16,1.0,9.0,77,0.00,,,0.00,0.0,meteohub,2013-03-25 10:48:00,
2013-03-25 05:55:00,23.2,17.4,30.25,North,0,3.0,9.0,78,0.00,,,0.00,0.0,meteohub,2013-03-25 10:55:00,
2013-03-25 06:01:00,23.4,17.2,30.25,North,355,4.0,9.0,77,0.00,,,0.00,0.0,meteohub,2013-03-25 11:01:00,
2013-03-25 06:07:00,23.2,17.1,30.25,NNW,348,3.0,8.0,77,0.00,,,0.00,0.0,meteohub,2013-03-25 11:07:00,
2013-03-25 06:14:00,23.0,16.9,30.25,NNW,346,1.0,8.0,77,0.00,,,0.00,0.0,meteohub,2013-03-25 11:14:00,
2013-03-25 06:20:00,22.8,16.7,30.26,North,350,8.0,8.0,77,0.00,,,0.00,0.0,meteohub,2013-03-25 11:20:00,
2013-03-25 06:26:00,22.8,16.7,30.25,NNW,346,3.0,8.0,77,0.00,,,0.00,0.0,meteohub,2013-03-25 11:26:00,
2013-03-25 06:32:00,22.8,16.7,30.26,NNE,22,5.0,8.0,77,0.00,,,0.00,0.0,meteohub,2013-03-25 11:32:00,
2013-03-25 06:37:00,22.6,16.5,30.26,NNW,342,6.0,9.0,77,0.00,,,0.00,0.0,meteohub,2013-03-25 11:37:00,
2013-03-25 06:43:00,22.6,16.5,30.26,North,355,3.0,9.0,77,0.00,,,0.00,0.0,meteohub,2013-03-25 11:43:00,
2013-03-25 06:49:00,22.5,16.7,30.27,NNW,341,7.0,9.0,78,0.00,,,0.00,0.0,meteohub,2013-03-25 11:49:00,
2013-03-25 06:56:00,22.5,16.3,30.27,North,355,2.0,9.0,77,0.00,,,0.00,0.0,meteohub,2013-03-25 11:56:00,
2013-03-25 07:02:00,22.5,16.7,30.27,NNW,338,2.0,11.0,78,0.00,,,0.00,0.0,meteohub,2013-03-25 12:02:00,
2013-03-25 07:09:00,22.3,16.5,30.27,NNW,334,2.0,11.0,78,0.00,,,0.00,5.0,meteohub,2013-03-25 12:09:00,
2013-03-25 07:15:00,22.3,16.5,30.27,North,5,3.0,11.0,78,0.00,,,0.00,9.0,meteohub,2013-03-25 12:15:00,
2013-03-25 07:21:00,22.3,16.5,30.27,North,11,3.0,11.0,78,0.00,,,0.00,14.0,meteohub,2013-03-25 12:21:00,
2013-03-25 07:28:00,22.3,16.5,30.28,NNW,344,5.0,11.0,78,0.00,,,0.00,21.0,meteohub,2013-03-25 12:28:00,
2013-03-25 07:34:00,22.3,16.5,30.28,North,350,6.0,11.0,78,0.00,,,0.00,33.0,meteohub,2013-03-25 12:34:00,
2013-03-25 07:40:00,22.5,16.7,30.28,North,355,3.0,11.0,78,0.00,,,0.00,42.0,meteohub,2013-03-25 12:40:00,
2013-03-25 07:47:00,22.5,16.3,30.28,NNW,345,4.0,11.0,77,0.00,,,0.00,49.0,meteohub,2013-03-25 12:47:00,
2013-03-25 07:53:00,22.6,16.5,30.29,North,350,3.0,11.0,77,0.00,,,0.00,56.0,meteohub,2013-03-25 12:53:00,
2013-03-25 07:59:00,22.8,16.3,30.29,NNW,340,2.0,11.0,76,0.00,,,0.00,72.0,meteohub,2013-03-25 12:59:00,
2013-03-25 08:06:00,23.0,16.5,30.29,NNW,343,6.0,11.0,76,0.00,,,0.00,58.0,meteohub,2013-03-25 13:06:00,
2013-03-25 08:12:00,23.2,16.5,30.29,NNW,345,7.0,10.0,75,0.00,,,0.00,98.0,meteohub,2013-03-25 13:12:00,
2013-03-25 08:18:00,23.5,16.7,30.29,North,355,2.0,10.0,75,0.00,,,0.00,169.0,meteohub,2013-03-25 13:18:00,
2013-03-25 08:24:00,23.9,16.9,30.29,North,0,5.0,10.0,74,0.00,,,0.00,183.0,meteohub,2013-03-25 13:24:00,
2013-03-25 08:31:00,24.3,16.9,30.30,NNW,346,2.0,10.0,73,0.00,,,0.00,188.0,meteohub,2013-03-25 13:31:00,
2013-03-25 08:37:00,24.3,16.9,30.30,NNW,348,3.0,11.0,73,0.00,,,0.00,188.0,meteohub,2013-03-25 13:37:00,
2013-03-25 08:43:00,24.6,17.2,30.30,NNE,18,3.0,11.0,73,0.00,,,0.00,216.0,meteohub,2013-03-25 13:43:00,
2013-03-25 08:49:00,25.0,17.2,30.30,NNW,344,4.0,11.0,72,0.00,,,0.00,260.0,meteohub,2013-03-25 13:49:00,
2013-03-25 08:57:00,25.2,17.1,30.30,NNE,30,3.0,11.0,71,0.00,,,0.00,276.0,meteohub,2013-03-25 13:57:00,
2013-03-25 09:02:00,25.5,17.1,30.30,NNW,338,4.0,10.0,70,0.00,,,0.00,306.0,meteohub,2013-03-25 14:02:00,
2013-03-25 09:09:00,25.7,17.2,30.30,NNE,32,2.0,10.0,70,0.00,,,0.00,315.0,meteohub,2013-03-25 14:09:00,
2013-03-25 09:15:00,25.9,17.1,30.30,North,350,7.0,10.0,69,0.00,,,0.00,339.0,meteohub,2013-03-25 14:15:00,
2013-03-25 09:21:00,26.2,17.4,30.30,North,350,2.0,11.0,69,0.00,,,0.00,366.0,meteohub,2013-03-25 14:21:00,
2013-03-25 09:28:00,26.4,17.2,30.31,NNW,343,5.0,11.0,68,0.00,,,0.00,374.0,meteohub,2013-03-25 14:28:00,
2013-03-25 09:34:00,26.8,18.0,30.31,North,9,3.0,11.0,69,0.00,,,0.00,388.0,meteohub,2013-03-25 14:34:00,
2013-03-25 09:40:00,26.8,17.2,30.31,North,5,6.0,10.0,67,0.00,,,0.00,411.0,meteohub,2013-03-25 14:40:00,
2013-03-25 09:46:00,26.8,17.6,30.31,NNE,25,4.0,10.0,68,0.00,,,0.00,436.0,meteohub,2013-03-25 14:46:00,
2013-03-25 09:53:00,27.3,17.8,30.31,North,355,2.0,13.0,67,0.00,,,0.00,461.0,meteohub,2013-03-25 14:53:00,
2013-03-25 09:59:00,27.9,18.3,30.31,North,349,5.0,13.0,67,0.00,,,0.00,478.0,meteohub,2013-03-25 14:59:00,
2013-03-25 10:05:00,28.0,17.8,30.31,North,355,2.0,13.0,65,0.00,,,0.00,504.0,meteohub,2013-03-25 15:05:00,
2013-03-25 10:11:00,28.4,18.1,30.31,NNE,17,2.0,8.0,65,0.00,,,0.00,522.0,meteohub,2013-03-25 15:11:00,
2013-03-25 10:17:00,28.8,18.9,30.31,North,5,4.0,8.0,66,0.00,,,0.00,533.0,meteohub,2013-03-25 15:17:00,
2013-03-25 10:22:00,29.1,18.5,30.31,North,5,2.0,8.0,64,0.00,,,0.00,538.0,meteohub,2013-03-25 15:22:00,
2013-03-25 10:28:00,29.5,18.5,30.31,NW,321,2.0,8.0,63,0.00,,,0.00,561.0,meteohub,2013-03-25 15:28:00,
2013-03-25 10:34:00,29.8,18.9,30.31,North,350,3.0,8.0,63,0.00,,,0.00,573.0,meteohub,2013-03-25 15:34:00,
2013-03-25 10:40:00,30.4,19.2,30.31,ENE,61,5.0,8.0,63,0.00,,,0.00,580.0,meteohub,2013-03-25 15:40:00,
2013-03-25 10:46:00,30.4,18.9,30.31,NNE,32,3.0,7.0,62,0.00,,,0.00,603.0,meteohub,2013-03-25 15:46:00,
2013-03-25 10:53:00,30.6,19.0,30.31,NNE,12,2.0,7.0,62,0.00,,,0.00,617.0,meteohub,2013-03-25 15:53:00,
2013-03-25 10:59:00,30.6,19.0,30.31,East,96,3.0,9.0,62,0.00,,,0.00,640.0,meteohub,2013-03-25 15:59:00,
2013-03-25 11:05:00,31.1,19.6,30.32,North,5,5.0,9.0,62,0.00,,,0.00,656.0,meteohub,2013-03-25 16:05:00,
2013-03-25 11:12:00,31.5,19.9,30.32,NNE,13,3.0,10.0,62,0.00,,,0.00,661.0,meteohub,2013-03-25 16:12:00,
2013-03-25 11:17:00,31.6,20.1,30.32,NE,34,4.0,10.0,62,0.00,,,0.00,682.0,meteohub,2013-03-25 16:17:00,
2013-03-25 11:22:00,31.8,19.9,30.32,ENE,61,3.0,10.0,61,0.00,,,0.00,696.0,meteohub,2013-03-25 16:22:00,
2013-03-25 11:29:00,31.6,20.1,30.32,NE,46,6.0,11.0,62,0.00,,,0.00,708.0,meteohub,2013-03-25 16:29:00,
2013-03-25 11:35:00,32.2,19.9,30.32,North,11,3.0,11.0,60,0.00,,,0.00,693.0,meteohub,2013-03-25 16:35:00,
2013-03-25 11:41:00,32.2,20.3,30.32,NNE,27,4.0,10.0,61,0.00,,,0.00,735.0,meteohub,2013-03-25 16:41:00,
2013-03-25 11:47:00,32.2,20.7,30.32,North,355,4.0,10.0,62,0.00,,,0.00,522.0,meteohub,2013-03-25 16:47:00,
2013-03-25 11:53:00,32.4,20.8,30.32,NNE,14,4.0,10.0,62,0.00,,,0.00,642.0,meteohub,2013-03-25 16:53:00,
2013-03-25 12:00:00,32.7,21.2,30.32,NNE,32,4.0,11.0,62,0.00,,,0.00,768.0,meteohub,2013-03-25 17:00:00,
2013-03-25 12:06:00,33.4,21.0,30.31,NW,323,3.0,11.0,60,0.00,,,0.00,766.0,meteohub,2013-03-25 17:06:00,
2013-03-25 12:12:00,33.3,20.8,30.31,North,0,3.0,11.0,60,0.00,,,0.00,775.0,meteohub,2013-03-25 17:12:00,
2013-03-25 12:18:00,33.4,21.4,30.31,NNE,13,6.0,10.0,61,0.00,,,0.00,717.0,meteohub,2013-03-25 17:18:00,
2013-03-25 12:25:00,33.4,21.4,30.31,NE,39,4.0,10.0,61,0.00,,,0.00,800.0,meteohub,2013-03-25 17:25:00,
2013-03-25 12:31:00,34.0,22.3,30.31,NE,37,1.0,10.0,62,0.00,,,0.00,810.0,meteohub,2013-03-25 17:31:00,
2013-03-25 12:37:00,34.9,21.6,30.30,NNW,346,7.0,12.0,58,0.00,,,0.00,798.0,meteohub,2013-03-25 17:37:00,
2013-03-25 12:44:00,35.1,22.1,30.30,ENE,65,2.0,12.0,59,0.00,,,0.00,802.0,meteohub,2013-03-25 17:44:00,
2013-03-25 12:50:00,35.1,22.1,30.30,North,5,3.0,12.0,59,0.00,,,0.00,831.0,meteohub,2013-03-25 17:50:00,
2013-03-25 12:56:00,34.9,21.6,30.30,NNE,26,6.0,12.0,58,0.00,,,0.00,817.0,meteohub,2013-03-25 17:56:00,
2013-03-25 13:02:00,34.9,21.6,30.30,NW,323,3.0,11.0,58,0.00,,,0.00,817.0,meteohub,2013-03-25 18:02:00,
2013-03-25 13:07:00,35.2,21.9,30.30,North,0,2.0,11.0,58,0.00,,,0.00,814.0,meteohub,2013-03-25 18:07:00,
2013-03-25 13:13:00,35.2,21.6,30.30,NNE,30,5.0,11.0,57,0.00,,,0.00,831.0,meteohub,2013-03-25 18:13:00,
2013-03-25 13:19:00,35.4,21.7,30.30,NNW,342,7.0,11.0,57,0.00,,,0.00,867.0,meteohub,2013-03-25 18:19:00,
2013-03-25 13:26:00,35.4,20.8,30.29,North,0,2.0,13.0,55,0.00,,,0.00,846.0,meteohub,2013-03-25 18:26:00,
2013-03-25 13:32:00,36.1,21.6,30.29,NNE,19,6.0,13.0,55,0.00,,,0.00,851.0,meteohub,2013-03-25 18:32:00,
2013-03-25 13:39:00,36.3,20.8,30.29,NW,309,12.0,13.0,53,0.00,,,0.00,884.0,meteohub,2013-03-25 18:39:00,
2013-03-25 13:45:00,36.3,20.8,30.29,NNE,26,3.0,13.0,53,0.00,,,0.00,896.0,meteohub,2013-03-25 18:45:00,
2013-03-25 13:51:00,36.7,21.6,30.29,NE,46,3.0,19.0,54,0.00,,,0.00,842.0,meteohub,2013-03-25 18:51:00,
2013-03-25 13:57:00,36.7,20.7,30.29,North,355,6.0,19.0,52,0.00,,,0.00,826.0,meteohub,2013-03-25 18:57:00,
2013-03-25 14:02:00,36.5,20.5,30.29,NE,46,8.0,19.0,52,0.00,,,0.00,837.0,meteohub,2013-03-25 19:02:00,
2013-03-25 14:08:00,36.7,22.1,30.29,NNE,19,4.0,19.0,55,0.00,,,0.00,803.0,meteohub,2013-03-25 19:08:00,
2013-03-25 14:14:00,36.1,19.8,30.28,NNE,15,4.0,14.0,51,0.00,,,0.00,819.0,meteohub,2013-03-25 19:14:00,
2013-03-25 14:21:00,36.7,20.7,30.28,NNE,28,4.0,14.0,52,0.00,,,0.00,826.0,meteohub,2013-03-25 19:21:00,
2013-03-25 14:27:00,36.3,20.3,30.28,NNE,19,5.0,14.0,52,0.00,,,0.00,784.0,meteohub,2013-03-25 19:27:00,
2013-03-25 14:34:00,36.7,20.7,30.28,ENE,78,8.0,15.0,52,0.00,,,0.00,773.0,meteohub,2013-03-25 19:34:00,
2013-03-25 14:40:00,36.7,20.3,30.28,NNW,346,4.0,15.0,51,0.00,,,0.00,766.0,meteohub,2013-03-25 19:40:00,
2013-03-25 14:46:00,36.9,20.5,30.28,NNE,19,3.0,12.0,51,0.00,,,0.00,766.0,meteohub,2013-03-25 19:46:00,
2013-03-25 14:53:00,37.0,20.7,30.28,NNE,22,4.0,12.0,51,0.00,,,0.00,756.0,meteohub,2013-03-25 19:53:00,
2013-03-25 14:59:00,37.2,21.2,30.28,WNW,294,3.0,10.0,52,0.00,,,0.00,738.0,meteohub,2013-03-25 19:59:00,
2013-03-25 15:05:00,37.0,20.7,30.27,NE,35,5.0,10.0,51,0.00,,,0.00,735.0,meteohub,2013-03-25 20:05:00,
2013-03-25 15:11:00,37.0,20.7,30.28,NNE,14,4.0,10.0,51,0.00,,,0.00,721.0,meteohub,2013-03-25 20:11:00,
2013-03-25 15:17:00,37.2,21.2,30.27,NNW,346,4.0,16.0,52,0.00,,,0.00,701.0,meteohub,2013-03-25 20:17:00,
2013-03-25 15:24:00,37.8,21.2,30.28,North,355,5.0,16.0,51,0.00,,,0.00,703.0,meteohub,2013-03-25 20:24:00,
2013-03-25 15:30:00,37.9,20.5,30.27,North,0,3.0,14.0,49,0.00,,,0.00,705.0,meteohub,2013-03-25 20:30:00,
2013-03-25 15:36:00,37.9,20.5,30.27,North,5,5.0,14.0,49,0.00,,,0.00,696.0,meteohub,2013-03-25 20:36:00,
2013-03-25 15:43:00,37.8,21.2,30.27,North,5,2.0,11.0,51,0.00,,,0.00,666.0,meteohub,2013-03-25 20:43:00,
2013-03-25 15:49:00,37.8,20.8,30.27,NNE,26,4.0,11.0,50,0.00,,,0.00,668.0,meteohub,2013-03-25 20:49:00,
2013-03-25 15:55:00,38.3,21.2,30.27,NNE,27,5.0,11.0,50,0.00,,,0.00,631.0,meteohub,2013-03-25 20:55:00,
2013-03-25 16:01:00,37.8,20.3,30.28,NNW,347,4.0,12.0,49,0.00,,,0.00,605.0,meteohub,2013-03-25 21:01:00,
2013-03-25 16:08:00,37.6,21.0,30.28,NNW,344,3.0,12.0,51,0.00,,,0.00,584.0,meteohub,2013-03-25 21:08:00,
2013-03-25 16:14:00,37.8,20.3,30.28,North,355,9.0,15.0,49,0.00,,,0.00,589.0,meteohub,2013-03-25 21:14:00,
2013-03-25 16:20:00,37.9,21.9,30.28,NNE,12,4.0,15.0,52,0.00,,,0.00,571.0,meteohub,2013-03-25 21:20:00,
2013-03-25 16:26:00,37.9,20.5,30.28,North,5,3.0,15.0,49,0.00,,,0.00,534.0,meteohub,2013-03-25 21:26:00,
2013-03-25 16:32:00,37.8,21.2,30.28,NW,304,2.0,13.0,51,0.00,,,0.00,527.0,meteohub,2013-03-25 21:32:00,
2013-03-25 16:37:00,38.1,21.6,30.28,North,5,3.0,13.0,51,0.00,,,0.00,517.0,meteohub,2013-03-25 21:37:00,
2013-03-25 16:43:00,38.5,21.4,30.28,NNE,15,4.0,11.0,50,0.00,,,0.00,504.0,meteohub,2013-03-25 21:43:00,
2013-03-25 16:49:00,38.1,21.2,30.29,North,351,2.0,11.0,50,0.00,,,0.00,510.0,meteohub,2013-03-25 21:49:00,
2013-03-25 16:55:00,37.9,21.4,30.29,NNE,18,3.0,11.0,51,0.00,,,0.00,475.0,meteohub,2013-03-25 21:55:00,
2013-03-25 17:02:00,37.9,21.4,30.29,NNE,30,4.0,13.0,51,0.00,,,0.00,450.0,meteohub,2013-03-25 22:02:00,
2013-03-25 17:08:00,37.6,20.1,30.29,NNE,29,3.0,13.0,49,0.00,,,0.00,422.0,meteohub,2013-03-25 22:08:00,
2013-03-25 17:14:00,37.6,21.6,30.29,NNE,26,7.0,12.0,52,0.00,,,0.00,418.0,meteohub,2013-03-25 22:14:00,
2013-03-25 17:20:00,37.2,20.8,30.29,NNW,346,6.0,12.0,51,0.00,,,0.00,381.0,meteohub,2013-03-25 22:20:00,
2013-03-25 17:27:00,37.2,21.2,30.29,North,355,2.0,12.0,52,0.00,,,0.00,357.0,meteohub,2013-03-25 22:27:00,
2013-03-25 17:32:00,37.2,21.2,30.29,NE,35,2.0,15.0,52,0.00,,,0.00,343.0,meteohub,2013-03-25 22:32:00,
2013-03-25 17:39:00,37.0,20.1,30.30,NNE,28,3.0,15.0,50,0.00,,,0.00,322.0,meteohub,2013-03-25 22:39:00,
2013-03-25 17:45:00,37.0,20.7,30.30,NNE,19,4.0,13.0,51,0.00,,,0.00,302.0,meteohub,2013-03-25 22:45:00,
2013-03-25 17:51:00,37.2,21.2,30.30,North,355,4.0,13.0,52,0.00,,,0.00,278.0,meteohub,2013-03-25 22:51:00,
2013-03-25 17:58:00,37.0,20.1,30.30,NW,321,3.0,13.0,50,0.00,,,0.00,258.0,meteohub,2013-03-25 22:58:00,
2013-03-25 18:04:00,37.0,21.0,30.30,North,5,3.0,13.0,52,0.00,,,0.00,237.0,meteohub,2013-03-25 23:04:00,
2013-03-25 18:10:00,36.9,20.5,30.30,North,5,5.0,13.0,51,0.00,,,0.00,220.0,meteohub,2013-03-25 23:10:00,
2013-03-25 18:16:00,36.7,20.7,30.31,NE,40,2.0,11.0,52,0.00,,,0.00,60.0,meteohub,2013-03-25 23:16:00,
2013-03-25 18:22:00,36.3,20.8,30.31,NNW,336,6.0,11.0,53,0.00,,,0.00,179.0,meteohub,2013-03-25 23:22:00,
2013-03-25 18:29:00,36.1,20.7,30.31,NNW,345,5.0,11.0,53,0.00,,,0.00,79.0,meteohub,2013-03-25 23:29:00,
2013-03-25 18:35:00,36.0,20.5,30.32,North,355,3.0,11.0,53,0.00,,,0.00,42.0,meteohub,2013-03-25 23:35:00,
2013-03-25 18:41:00,36.0,21.0,30.32,NNE,19,3.0,10.0,54,0.00,,,0.00,46.0,meteohub,2013-03-25 23:41:00,
2013-03-25 18:47:00,36.1,20.7,30.32,NNW,342,7.0,10.0,53,0.00,,,0.00,47.0,meteohub,2013-03-25 23:47:00,
2013-03-25 18:52:00,36.1,21.6,30.32,North,350,0.0,10.0,55,0.00,,,0.00,53.0,meteohub,2013-03-25 23:52:00,
2013-03-25 18:58:00,36.0,21.4,30.33,NNW,330,2.0,10.0,55,0.00,,,0.00,44.0,meteohub,2013-03-25 23:58:00,
2013-03-25 19:04:00,36.0,21.7,30.33,NE,40,3.0,7.0,56,0.00,,,0.00,30.0,meteohub,2013-03-26 00:04:00,
2013-03-25 19:11:00,35.8,21.2,30.33,NNW,336,7.0,7.0,55,0.00,,,0.00,25.0,meteohub,2013-03-26 00:11:00,
2013-03-25 19:17:00,35.8,21.2,30.33,NNW,336,2.0,7.0,55,0.00,,,0.00,18.0,meteohub,2013-03-26 00:17:00,
2013-03-25 19:23:00,35.8,21.2,30.34,North,5,2.0,7.0,55,0.00,,,0.00,11.0,meteohub,2013-03-26 00:23:00,
2013-03-25 19:29:00,35.8,21.6,30.34,NNW,346,5.0,10.0,56,0.00,,,0.00,7.0,meteohub,2013-03-26 00:29:00,
2013-03-25 19:35:00,35.6,21.9,30.34,North,9,1.0,10.0,57,0.00,,,0.00,0.0,meteohub,2013-03-26 00:35:00,
2013-03-25 19:42:00,35.4,22.1,30.35,North,0,4.0,6.0,58,0.00,,,0.00,0.0,meteohub,2013-03-26 00:42:00,
2013-03-25 19:48:00,35.4,21.7,30.35,North,351,3.0,6.0,57,0.00,,,0.00,0.0,meteohub,2013-03-26 00:48:00,
2013-03-25 19:54:00,35.4,21.7,30.35,NNW,331,1.0,7.0,57,0.00,,,0.00,0.0,meteohub,2013-03-26 00:54:00,
2013-03-25 20:01:00,35.2,21.9,30.35,North,351,3.0,7.0,58,0.00,,,0.00,0.0,meteohub,2013-03-26 01:01:00,
2013-03-25 20:07:00,35.2,21.9,30.35,North,5,0.0,7.0,58,0.00,,,0.00,0.0,meteohub,2013-03-26 01:07:00,
2013-03-25 20:13:00,35.2,21.9,30.35,North,0,1.0,5.0,58,0.00,,,0.00,0.0,meteohub,2013-03-26 01:13:00,
2013-03-25 20:19:00,35.1,21.7,30.35,NNW,348,1.0,5.0,58,0.00,,,0.00,0.0,meteohub,2013-03-26 01:19:00,
2013-03-25 20:26:00,35.1,22.1,30.36,North,350,1.0,5.0,59,0.00,,,0.00,0.0,meteohub,2013-03-26 01:26:00,
2013-03-25 20:32:00,34.9,22.8,30.36,NNE,15,0.0,5.0,61,0.00,,,0.00,0.0,meteohub,2013-03-26 01:32:00,
2013-03-25 20:38:00,34.9,22.5,30.36,NNE,15,0.0,5.0,60,0.00,,,0.00,0.0,meteohub,2013-03-26 01:38:00,
2013-03-25 20:45:00,34.7,22.3,30.36,North,9,0.0,5.0,60,0.00,,,0.00,0.0,meteohub,2013-03-26 01:45:00,
2013-03-25 20:52:00,34.5,22.1,30.36,North,9,0.0,5.0,60,0.00,,,0.00,0.0,meteohub,2013-03-26 01:52:00,
2013-03-25 20:57:00,34.5,22.1,30.36,NW,324,0.0,4.0,60,0.00,,,0.00,0.0,meteohub,2013-03-26 01:57:00,
2013-03-25 21:04:00,34.2,22.1,30.36,NW,311,0.0,4.0,61,0.00,,,0.00,0.0,meteohub,2013-03-26 02:04:00,
2013-03-25 21:10:00,34.0,21.9,30.36,NNW,334,0.0,4.0,61,0.00,,,0.00,0.0,meteohub,2013-03-26 02:10:00,
2013-03-25 21:16:00,33.6,21.9,30.37,North,355,0.0,3.0,62,0.00,,,0.00,0.0,meteohub,2013-03-26 02:16:00,
2013-03-25 21:22:00,33.4,21.7,30.37,North,355,0.0,3.0,62,0.00,,,0.00,0.0,meteohub,2013-03-26 02:22:00,
2013-03-25 21:28:00,33.1,21.6,30.37,North,355,0.0,2.0,62,0.00,,,0.00,0.0,meteohub,2013-03-26 02:28:00,
2013-03-25 21:35:00,32.7,21.2,30.37,North,355,0.0,2.0,62,0.00,,,0.00,0.0,meteohub,2013-03-26 02:35:00,
2013-03-25 21:41:00,32.5,21.4,30.38,North,355,0.0,3.0,63,0.00,,,0.00,0.0,meteohub,2013-03-26 02:41:00,
2013-03-25 21:47:00,32.2,21.4,30.38,North,355,0.0,3.0,64,0.00,,,0.00,0.0,meteohub,2013-03-26 02:47:00,
2013-03-25 21:52:00,31.8,21.4,30.38,North,355,0.0,3.0,65,0.00,,,0.00,0.0,meteohub,2013-03-26 02:52:00,
2013-03-25 21:58:00,31.5,21.4,30.38,North,355,0.0,2.0,66,0.00,,,0.00,0.0,meteohub,2013-03-26 02:58:00,
2013-03-25 22:04:00,31.3,20.8,30.38,North,355,0.0,2.0,65,0.00,,,0.00,0.0,meteohub,2013-03-26 03:04:00,
2013-03-25 22:11:00,30.9,20.8,30.38,North,355,0.0,2.0,66,0.00,,,0.00,0.0,meteohub,2013-03-26 03:11:00,
2013-03-25 22:17:00,30.9,20.8,30.38,North,355,0.0,2.0,66,0.00,,,0.00,0.0,meteohub,2013-03-26 03:17:00,
2013-03-25 22:23:00,30.7,21.0,30.38,North,355,0.0,2.0,67,0.00,,,0.00,0.0,meteohub,2013-03-26 03:23:00,
2013-03-25 22:29:00,30.6,20.8,30.38,North,355,0.0,2.0,67,0.00,,,0.00,0.0,meteohub,2013-03-26 03:29:00,
2013-03-25 22:35:00,30.4,21.0,30.38,North,355,0.0,2.0,68,0.00,,,0.00,0.0,meteohub,2013-03-26 03:35:00,
2013-03-25 22:41:00,30.4,21.4,30.38,North,355,2.0,2.0,69,0.00,,,0.00,0.0,meteohub,2013-03-26 03:41:00,
2013-03-25 22:47:00,30.6,21.6,30.38,NNW,348,0.0,1.0,69,0.00,,,0.00,0.0,meteohub,2013-03-26 03:47:00,
2013-03-25 22:52:00,30.7,21.4,30.38,NNW,332,1.0,1.0,68,0.00,,,0.00,0.0,meteohub,2013-03-26 03:52:00,
2013-03-25 22:58:00,30.9,21.9,30.38,WNW,301,0.0,3.0,69,0.00,,,0.00,0.0,meteohub,2013-03-26 03:58:00,
2013-03-25 23:00:00,31.1,22.1,30.38,WNW,293,2.0,3.0,69,0.00,,,0.00,0.0,meteohub,2013-03-26 04:00:00,
2013-03-25 23:02:00,31.3,21.9,30.38,WNW,296,1.0,3.0,68,0.00,,,0.00,0.0,meteohub,2013-03-26 04:02:00,
2013-03-25 23:06:00,31.5,22.1,30.38,WNW,291,2.0,3.0,68,0.00,,,0.00,0.0,meteohub,2013-03-26 04:06:00,
2013-03-25 23:10:00,31.5,22.1,30.38,WNW,289,1.0,3.0,68,0.00,,,0.00,0.0,meteohub,2013-03-26 04:10:00,
2013-03-25 23:17:00,31.6,22.3,30.38,WNW,298,0.0,4.0,68,0.00,,,0.00,0.0,meteohub,2013-03-26 04:17:00,
2013-03-25 23:23:00,31.6,22.3,30.38,WNW,298,0.0,4.0,68,0.00,,,0.00,0.0,meteohub,2013-03-26 04:23:00,
2013-03-25 23:29:00,31.6,22.3,30.38,WNW,298,2.0,4.0,68,0.00,,,0.00,0.0,meteohub,2013-03-26 04:29:00,
2013-03-25 23:36:00,31.8,22.1,30.38,WNW,298,1.0,4.0,67,0.00,,,0.00,0.0,meteohub,2013-03-26 04:36:00,
2013-03-25 23:42:00,31.8,22.1,30.38,WNW,296,2.0,4.0,67,0.00,,,0.00,0.0,meteohub,2013-03-26 04:42:00,
2013-03-25 23:48:00,31.8,22.5,30.38,WNW,296,1.0,4.0,68,0.00,,,0.00,0.0,meteohub,2013-03-26 04:48:00,
2013-03-25 23:54:00,32.0,22.6,30.38,WNW,300,1.0,4.0,68,0.00,,,0.00,0.0,meteohub,2013-03-26 04:54:00,